Regional Weather Roundup
Issued by NWS

Home | Current Version | Previous Version | Graphics & Text | Print | Product List | Glossary Off
Versions: 1 2 3 4 5 6 7 8 9 10 11 12 13 14 15 16 17 18 19 20 21 22 23 24 25 26 27 28 29 30 31 32 33 34 35 36 37 38 39 40 41 42 43 44 45 46 47 48 49 50

000
ASUS43 KTOP 231008
RWRKS

WEATHER ROUNDUP FOR KANSAS
NATIONAL WEATHER SERVICE GOODLAND KS
400 AM CST MON JAN 23 2017

NOTE:  "FAIR" INDICATES FEW OR NO CLOUDS BELOW 12,000 FEET WITH NO
SIGNIFICANT WEATHER AND/OR OBSTRUCTIONS TO VISIBILITY.

KSZ001>006-013>018-027>032-041>047-231100-
NORTHWEST KANSAS

CITY           SKY/WX    TMP DP  RH WIND       PRES   REMARKS
GOODLAND       CLOUDY    32  24  72 S10       29.78F WCI  24
HAYS           CLEAR     25  23  92 NE3       29.86F
HILL CITY      CLEAR     26  24  92 W3        29.85F
RUSSELL        CLEAR     25  22  88 SW5       29.87S
$$

KSZ061>065-074>080-084>089-231100-
SOUTHWEST KANSAS

CITY           SKY/WX    TMP DP  RH WIND       PRES   REMARKS
DODGE CITY     CLOUDY    27  23  85 SW8       29.87F
ELKHART          N/A     33  18  54 SW8         N/A
GARDEN CITY    CLOUDY    29  23  78 SW8       29.86F
GREAT BEND     CLEAR     26  24  92 SW6       29.88F
LIBERAL          N/A     27  19  74 SW7       29.87F
PRATT          CLOUDY    25  21  87 W5        29.89F
$$

KSZ066>073-081>083-090>101-231100-
SOUTHEAST KANSAS

CITY           SKY/WX    TMP DP  RH WIND       PRES   REMARKS
CHANUTE        CLEAR     30  28  92 NW7       29.92F
COFFEYVILLE    CLEAR     31  29  92 CALM      29.93F
HUTCHINSON     CLEAR     26  25  96 CALM      29.90F
MEDICINE LODGE   N/A     25  22  88 CALM      29.91F
NEWTON         CLEAR     29  28  96 CALM      29.91F
PARSONS        CLEAR     28  27  96 CALM      29.93F FOG
WICHITA INTL   CLEAR     28  26  92 SE5       29.92F
WICHITA JABRA  CLEAR     29  28  96 S5        29.92S
WICHITA MCCONL CLEAR     29  28  93 S3        29.91F
WINFIELD       CLEAR     29  27  92 CALM      29.94F FOG
$$

KSZ007>012-019>026-033>040-048>060-102>105-231100-
NORTHEAST KANSAS

CITY           SKY/WX    TMP DP  RH WIND       PRES   REMARKS
CONCORDIA      CLEAR     29  28  96 CALM      29.89S
EMPORIA        CLEAR     27  25  92 W6        29.91F
LAWRENCE       PTCLDY    25  25 100 W6        29.93S FOG
MANHATTAN      CLEAR     23  21  92 CALM      29.92F
MARYSVILLE     FOG       25  23  93 CALM      29.91S VSB 1/4
OLATHE IND     CLEAR     30  29  96 W7        29.91S
OLATHE EXE     CLEAR     30  30 100 NW5       29.89F
SALINA           N/A    N/A N/A N/A MISG        N/A
TOPEKA BILLARD CLEAR     28  25  88 CALM      29.92F
TOPEKA FORBES  CLEAR     28  25  88 NW3       29.91F
$$



USA.gov is the U.S. government's official web portal to all federal, state and local government web resources and services.